Location: Atherton
(17.2661°S, 145.4859°E)
Time: 05:23:31
(UTC+10:00)

Transit 4A - Pass Details

Date: 02 July 2025
Orbit: 868 x 973 km, 66.8° (Epoch: 20 July)

Event Time Altitude Azimuth Distance (km) Brightness Sun altitude
Rises 19:15:31 0° 354° (N) 3,433 11.2 -18.6°
Reaches altitude 10° 19:18:03 10° 360° (N) 2,504 10.4 -19.2°
Maximum altitude 19:23:33 46° 72° (ENE) 1,161 8.0 -20.4°
Enters shadow 19:24:54 39° 108° (ESE) 1,289 8.1 -20.7°
